星链-4687 (STARLINK-4687 )

导读 | 豆包AI

STARLINK-4687是美国太空探索技术公司SpaceX星链星座的一员,于2022年9月11日发射升空,属于星链低轨卫星互联网项目。卫星运行在近地轨道,主要为全球提供高速低延迟互联网服务,尤其覆盖偏远地区,同时也具备军事通信应用潜力,不过该卫星的部署也引发了太空拥堵和天文观测干扰等争议。

Basic Information
目录编号:
53784
目录名称:
STARLINK-4687
国际标识:
2022-111M
轨道中心:
EARTH
卫星名称:
星链-4687
卫星全名:
星链-4687 (STARLINK-4687 )
卫星状态:
在轨 (已飞行1281 天)
发射日期:
2022-09-11 UTC
国别 :
美国 (US)
星等 :
--
Orbit Information
数据来源 国际轨道数据 AOE轨道数据
星历时间 2026-03-15T05:49:39+0800
12小时前
查看轨道信息
2026-03-12T11:00:00+0800
3天前
查看轨道信息
半长轴 6917.861km 6917.874km
偏心率 0.0001473 0.0001555
轨道倾角 53.217° 53.215°
近地点辐角 108.551° 80.160°
升交点赤经 250.726° 263.226°
平近点角 251.564° 266.855°
近地点 538.704km 538.661km
远地点 540.744km 540.813km
周期 95.437分钟 95.437分钟
每日圈数 15.088464 15.088424
Detailed Information
固有亮度:
5
最大亮度:
2.5
卫星平台:
Starlink v1.5
覆盖范围:
全球
运营商:
太空探索技术公司
运营商所在国:
美国
制造商(研发单位):
太空探索技术公司
制造商所在国:
美国
使用方式:
暂无
Satellite Introduction
星链(Starlink)计划是由太空探索技术公司(SpaceX)提出的一个巨型低轨卫星互联网星座项目,计划在2019年至2024年间在太空搭建由约1.2万颗卫星组成的“星链”网络,其中1584颗将部署在地球上空550千米处的近地轨道,并从2020年开始工作。该卫星仍在工作。
2D Orbit Map
3D Orbit Map
Orbit Altitude Analysis Chart
Orbit Inclination Analysis Chart
Orbit Comprehensive Analysis Chart
View Comprehensive Chart